Year,Month,Day,Hour,Minute,Value (Times are PST for temperature in C)
2016,08,12,00,00,16.80
2016,08,12,00,01,16.80
2016,08,12,00,02,16.80
2016,08,12,00,03,16.80
2016,08,12,00,04,16.80
2016,08,12,00,05,16.80
2016,08,12,00,06,16.70
2016,08,12,00,07,16.70
2016,08,12,00,08,16.70
2016,08,12,00,09,16.70
2016,08,12,00,10,16.70
2016,08,12,00,11,16.70
2016,08,12,00,12,16.70
2016,08,12,00,13,16.70
2016,08,12,00,14,16.70
2016,08,12,00,15,16.70
2016,08,12,00,16,16.70
2016,08,12,00,17,16.70
2016,08,12,00,18,16.70
2016,08,12,00,19,16.70
2016,08,12,00,20,16.70
2016,08,12,00,21,16.70
2016,08,12,00,22,16.70
2016,08,12,00,23,16.70
2016,08,12,00,24,16.70
2016,08,12,00,25,16.60
2016,08,12,00,26,16.60
2016,08,12,00,27,16.60
2016,08,12,00,28,16.60
2016,08,12,00,29,16.60
2016,08,12,00,30,16.60
2016,08,12,00,31,16.60
2016,08,12,00,32,16.60
2016,08,12,00,33,16.60
2016,08,12,00,34,16.60
2016,08,12,00,35,16.60
2016,08,12,00,36,16.60
2016,08,12,00,37,16.60
2016,08,12,00,38,16.60
2016,08,12,00,39,16.60
2016,08,12,00,40,16.60
2016,08,12,00,41,16.60
2016,08,12,00,42,16.60
2016,08,12,00,43,16.60
2016,08,12,00,44,16.70
2016,08,12,00,45,16.70
2016,08,12,00,46,16.70
2016,08,12,00,47,16.70
2016,08,12,00,48,16.70
2016,08,12,00,49,16.70
2016,08,12,00,50,16.70
2016,08,12,00,51,16.70
2016,08,12,00,52,16.70
2016,08,12,00,53,16.70
2016,08,12,00,54,16.70
2016,08,12,00,55,16.70
2016,08,12,00,56,16.70
2016,08,12,00,57,16.70
2016,08,12,00,58,16.70
2016,08,12,00,59,16.70
2016,08,12,01,00,16.70
2016,08,12,01,01,16.70
2016,08,12,01,02,16.70
2016,08,12,01,03,16.70
2016,08,12,01,04,16.70
2016,08,12,01,05,16.70
2016,08,12,01,06,16.70
2016,08,12,01,07,16.70
2016,08,12,01,08,16.70
2016,08,12,01,09,16.70
2016,08,12,01,10,16.70
2016,08,12,01,11,16.60
2016,08,12,01,12,16.60
2016,08,12,01,13,16.60
2016,08,12,01,14,16.60
2016,08,12,01,15,16.60
2016,08,12,01,16,16.60
2016,08,12,01,17,16.50
2016,08,12,01,18,16.50
2016,08,12,01,19,16.50
2016,08,12,01,20,16.50
2016,08,12,01,21,16.50
2016,08,12,01,22,16.40
2016,08,12,01,23,16.40
2016,08,12,01,24,16.40
2016,08,12,01,25,16.40
2016,08,12,01,26,16.40
2016,08,12,01,27,16.40
2016,08,12,01,28,16.40
2016,08,12,01,29,16.30
2016,08,12,01,30,16.30
2016,08,12,01,31,16.30
2016,08,12,01,32,16.30
2016,08,12,01,33,16.30
2016,08,12,01,34,16.30
2016,08,12,01,35,16.30
2016,08,12,01,36,16.30
2016,08,12,01,37,16.30
2016,08,12,01,38,16.20
2016,08,12,01,39,16.20
2016,08,12,01,40,16.20
2016,08,12,01,41,16.20
2016,08,12,01,42,16.20
2016,08,12,01,43,16.20
2016,08,12,01,44,16.20
2016,08,12,01,45,16.10
2016,08,12,01,46,16.10
2016,08,12,01,47,16.10
2016,08,12,01,48,16.10
2016,08,12,01,49,16.10
2016,08,12,01,50,16.10
2016,08,12,01,51,16.00
2016,08,12,01,52,16.00
2016,08,12,01,53,16.00
2016,08,12,01,54,15.90
2016,08,12,01,55,15.90
2016,08,12,01,56,15.90
2016,08,12,01,57,15.90
2016,08,12,01,58,15.90
2016,08,12,01,59,15.90
2016,08,12,02,00,15.90
2016,08,12,02,01,15.90
2016,08,12,02,02,15.90
2016,08,12,02,03,15.90
2016,08,12,02,04,15.90
2016,08,12,02,05,15.90
2016,08,12,02,06,15.80
2016,08,12,02,07,15.80
2016,08,12,02,08,15.80
2016,08,12,02,09,15.80
2016,08,12,02,10,15.80
2016,08,12,02,11,15.80
2016,08,12,02,12,15.80
2016,08,12,02,13,15.70
2016,08,12,02,14,15.70
2016,08,12,02,15,15.70
2016,08,12,02,16,15.70
2016,08,12,02,17,15.70
2016,08,12,02,18,15.70
2016,08,12,02,19,15.60
2016,08,12,02,20,15.60
2016,08,12,02,21,15.60
2016,08,12,02,22,15.60
2016,08,12,02,23,15.50
2016,08,12,02,24,15.50
2016,08,12,02,25,15.50
2016,08,12,02,26,15.40
2016,08,12,02,27,15.40
2016,08,12,02,28,15.40
2016,08,12,02,29,15.40
2016,08,12,02,30,15.40
2016,08,12,02,31,15.40
2016,08,12,02,32,15.40
2016,08,12,02,33,15.40
2016,08,12,02,34,15.40
2016,08,12,02,35,15.30
2016,08,12,02,36,15.30
2016,08,12,02,37,15.30
2016,08,12,02,38,15.30
2016,08,12,02,39,15.30
2016,08,12,02,40,15.30
2016,08,12,02,41,15.30
2016,08,12,02,42,15.30
2016,08,12,02,43,15.20
2016,08,12,02,44,15.20
2016,08,12,02,45,15.20
2016,08,12,02,46,15.20
2016,08,12,02,47,15.20
2016,08,12,02,48,15.20
2016,08,12,02,49,15.10
2016,08,12,02,50,15.10
2016,08,12,02,51,15.10
2016,08,12,02,52,15.10
2016,08,12,02,53,15.10
2016,08,12,02,54,15.10
2016,08,12,02,55,15.10
2016,08,12,02,56,15.10
2016,08,12,02,57,15.00
2016,08,12,02,58,15.00
2016,08,12,02,59,15.00
2016,08,12,03,00,15.00
2016,08,12,03,01,15.00
2016,08,12,03,02,14.90
2016,08,12,03,03,14.90
2016,08,12,03,04,14.90
2016,08,12,03,05,14.90
2016,08,12,03,06,14.90
2016,08,12,03,07,14.90
2016,08,12,03,08,14.90
2016,08,12,03,09,14.80
2016,08,12,03,10,14.80
2016,08,12,03,11,14.80
2016,08,12,03,12,14.80
2016,08,12,03,13,14.80
2016,08,12,03,14,14.80
2016,08,12,03,15,14.80
2016,08,12,03,16,14.80
2016,08,12,03,17,14.80
2016,08,12,03,18,14.80
2016,08,12,03,19,14.80
2016,08,12,03,20,14.80
2016,08,12,03,21,14.80
2016,08,12,03,22,14.80
2016,08,12,03,23,14.70
2016,08,12,03,24,14.70
2016,08,12,03,25,14.70
2016,08,12,03,26,14.70
2016,08,12,03,27,14.70
2016,08,12,03,28,14.70
2016,08,12,03,29,14.70
2016,08,12,03,30,14.70
2016,08,12,03,31,14.70
2016,08,12,03,32,14.70
2016,08,12,03,33,14.70
2016,08,12,03,34,14.70
2016,08,12,03,35,14.70
2016,08,12,03,36,14.70
2016,08,12,03,37,14.70
2016,08,12,03,38,14.70
2016,08,12,03,39,14.70
2016,08,12,03,40,14.70
2016,08,12,03,41,14.70
2016,08,12,03,42,14.70
2016,08,12,03,43,14.70
2016,08,12,03,44,14.70
2016,08,12,03,45,14.70
2016,08,12,03,46,14.60
2016,08,12,03,47,14.60
2016,08,12,03,48,14.60
2016,08,12,03,49,14.60
2016,08,12,03,50,14.60
2016,08,12,03,51,14.60
2016,08,12,03,52,14.60
2016,08,12,03,53,14.60
2016,08,12,03,54,14.60
2016,08,12,03,55,14.60
2016,08,12,03,56,14.60
2016,08,12,03,57,14.60
2016,08,12,03,58,14.60
2016,08,12,03,59,14.60
2016,08,12,04,00,14.60
2016,08,12,04,01,14.60
2016,08,12,04,02,14.60
2016,08,12,04,03,14.60
2016,08,12,04,04,14.60
2016,08,12,04,05,14.60
2016,08,12,04,06,14.60
2016,08,12,04,07,14.60
2016,08,12,04,08,14.60
2016,08,12,04,09,14.60
2016,08,12,04,10,14.60
2016,08,12,04,11,14.60
2016,08,12,04,12,14.60
2016,08,12,04,13,14.60
2016,08,12,04,14,14.60
2016,08,12,04,15,14.60
2016,08,12,04,16,14.60
2016,08,12,04,17,14.60
2016,08,12,04,18,14.60
2016,08,12,04,19,14.60
2016,08,12,04,20,14.60
2016,08,12,04,21,14.50
2016,08,12,04,22,14.50
2016,08,12,04,23,14.50
2016,08,12,04,24,14.50
2016,08,12,04,25,14.50
2016,08,12,04,26,14.50
2016,08,12,04,27,14.50
2016,08,12,04,28,14.50
2016,08,12,04,29,14.50
2016,08,12,04,30,14.50
2016,08,12,04,31,14.50
2016,08,12,04,32,14.50
2016,08,12,04,33,14.50
2016,08,12,04,34,14.50
2016,08,12,04,35,14.50
2016,08,12,04,36,14.50
2016,08,12,04,37,14.50
2016,08,12,04,38,14.60
2016,08,12,04,39,14.50
2016,08,12,04,40,14.60
2016,08,12,04,41,14.60
2016,08,12,04,42,14.60
2016,08,12,04,43,14.60
2016,08,12,04,44,14.60
2016,08,12,04,45,14.60
2016,08,12,04,46,14.60
2016,08,12,04,47,14.60
2016,08,12,04,48,14.60
2016,08,12,04,49,14.60
2016,08,12,04,50,14.50
2016,08,12,04,51,14.50
2016,08,12,04,52,14.50
2016,08,12,04,53,14.50
2016,08,12,04,54,14.50
2016,08,12,04,55,14.50
2016,08,12,04,56,14.40
2016,08,12,04,57,14.50
2016,08,12,04,58,14.50
2016,08,12,04,59,14.50
2016,08,12,05,00,14.50
2016,08,12,05,01,14.40
2016,08,12,05,02,14.50
2016,08,12,05,03,14.50
2016,08,12,05,04,14.50
2016,08,12,05,05,14.40
2016,08,12,05,06,14.40
2016,08,12,05,07,14.40
2016,08,12,05,08,14.40
2016,08,12,05,09,14.50
2016,08,12,05,10,14.50
2016,08,12,05,11,14.40
2016,08,12,05,12,14.50
2016,08,12,05,13,14.40
2016,08,12,05,14,14.50
2016,08,12,05,15,14.50
2016,08,12,05,16,14.50
2016,08,12,05,17,14.50
2016,08,12,05,18,14.50
2016,08,12,05,19,14.50
2016,08,12,05,20,14.50
2016,08,12,05,21,14.50
2016,08,12,05,22,14.50
2016,08,12,05,23,14.50
2016,08,12,05,24,14.50
2016,08,12,05,25,14.50
2016,08,12,05,26,14.60
2016,08,12,05,27,14.50
2016,08,12,05,28,14.60
2016,08,12,05,29,14.60
2016,08,12,05,30,14.50
2016,08,12,05,31,14.50
2016,08,12,05,32,14.50
2016,08,12,05,33,14.50
2016,08,12,05,34,14.50
2016,08,12,05,35,14.40
2016,08,12,05,36,14.40
2016,08,12,05,37,14.40
2016,08,12,05,38,14.40
2016,08,12,05,39,14.40
2016,08,12,05,40,14.40
2016,08,12,05,41,14.30
2016,08,12,05,42,14.30
2016,08,12,05,43,14.30
2016,08,12,05,44,14.30
2016,08,12,05,45,14.40
2016,08,12,05,46,14.40
2016,08,12,05,47,14.40
2016,08,12,05,48,14.40
2016,08,12,05,49,14.40
2016,08,12,05,50,14.40
2016,08,12,05,51,14.40
2016,08,12,05,52,14.40
2016,08,12,05,53,14.40
2016,08,12,05,54,14.40
2016,08,12,05,55,14.30
2016,08,12,05,56,14.40
2016,08,12,05,57,14.40
2016,08,12,05,58,14.30
2016,08,12,05,59,14.30
2016,08,12,06,00,14.30
2016,08,12,06,01,14.30
2016,08,12,06,02,14.30
2016,08,12,06,03,14.30
2016,08,12,06,04,14.30
2016,08,12,06,05,14.30
2016,08,12,06,06,14.30
2016,08,12,06,07,14.30
2016,08,12,06,08,14.30
2016,08,12,06,09,14.30
2016,08,12,06,10,14.30
2016,08,12,06,11,14.30
2016,08,12,06,12,14.30
2016,08,12,06,13,14.30
2016,08,12,06,14,14.30
2016,08,12,06,15,14.30
2016,08,12,06,16,14.30
2016,08,12,06,17,14.30
2016,08,12,06,18,14.30
2016,08,12,06,19,14.30
2016,08,12,06,20,14.30
2016,08,12,06,21,14.30
2016,08,12,06,22,14.20
2016,08,12,06,23,14.20
2016,08,12,06,24,14.20
2016,08,12,06,25,14.20
2016,08,12,06,26,14.20
2016,08,12,06,27,14.20
2016,08,12,06,28,14.20
2016,08,12,06,29,14.20
2016,08,12,06,30,14.20
2016,08,12,06,31,14.20
2016,08,12,06,32,14.20
2016,08,12,06,33,14.10
2016,08,12,06,34,14.10
2016,08,12,06,35,14.10
2016,08,12,06,36,14.10
2016,08,12,06,37,14.10
2016,08,12,06,38,14.10
2016,08,12,06,39,14.10
2016,08,12,06,40,14.10
2016,08,12,06,41,14.10
2016,08,12,06,42,14.10
2016,08,12,06,43,14.10
2016,08,12,06,44,14.10
2016,08,12,06,45,14.10
2016,08,12,06,46,14.10
2016,08,12,06,47,14.10
2016,08,12,06,48,14.10
2016,08,12,06,49,14.10
2016,08,12,06,50,14.10
2016,08,12,06,51,14.20
2016,08,12,06,52,14.20
2016,08,12,06,53,14.20
2016,08,12,06,54,14.20
2016,08,12,06,55,14.20
2016,08,12,06,56,14.20
2016,08,12,06,57,14.20
2016,08,12,06,58,14.20
2016,08,12,06,59,14.20
2016,08,12,07,00,14.30
2016,08,12,07,01,14.30
2016,08,12,07,02,14.30
2016,08,12,07,03,14.40
2016,08,12,07,04,14.40
2016,08,12,07,05,14.50
2016,08,12,07,06,14.60
2016,08,12,07,07,14.60
2016,08,12,07,08,14.70
2016,08,12,07,09,14.70
2016,08,12,07,10,14.80
2016,08,12,07,11,14.90
2016,08,12,07,12,14.90
2016,08,12,07,13,15.00
2016,08,12,07,14,15.10
2016,08,12,07,15,15.20
2016,08,12,07,16,15.30
2016,08,12,07,17,15.30
2016,08,12,07,18,15.40
2016,08,12,07,19,15.40
2016,08,12,07,20,15.50
2016,08,12,07,21,15.60
2016,08,12,07,22,15.60
2016,08,12,07,23,15.70
2016,08,12,07,24,15.70
2016,08,12,07,25,15.70
2016,08,12,07,26,15.70
2016,08,12,07,27,15.70
2016,08,12,07,28,15.70
2016,08,12,07,29,15.70
2016,08,12,07,30,15.70
2016,08,12,07,31,15.70
2016,08,12,07,32,15.80
2016,08,12,07,33,15.80
2016,08,12,07,34,15.80
2016,08,12,07,35,15.80
2016,08,12,07,36,15.90
2016,08,12,07,37,15.90
2016,08,12,07,38,16.00
2016,08,12,07,39,16.00
2016,08,12,07,40,16.10
2016,08,12,07,41,16.10
2016,08,12,07,42,16.20
2016,08,12,07,43,16.20
2016,08,12,07,44,16.20
2016,08,12,07,45,16.20
2016,08,12,07,46,16.30
2016,08,12,07,47,16.30
2016,08,12,07,48,16.30
2016,08,12,07,49,16.30
2016,08,12,07,50,16.40
2016,08,12,07,51,16.40
2016,08,12,07,52,16.40
2016,08,12,07,53,16.40
2016,08,12,07,54,16.50
2016,08,12,07,55,16.50
2016,08,12,07,56,16.60
2016,08,12,07,57,16.60
2016,08,12,07,58,16.70
2016,08,12,07,59,16.70
2016,08,12,08,00,16.70
2016,08,12,08,01,16.70
2016,08,12,08,02,16.80
2016,08,12,08,03,16.80
2016,08,12,08,04,16.80
2016,08,12,08,05,16.90
2016,08,12,08,06,16.90
2016,08,12,08,07,16.90
2016,08,12,08,08,16.90
2016,08,12,08,09,16.90
2016,08,12,08,10,17.00
2016,08,12,08,11,17.00
2016,08,12,08,12,17.00
2016,08,12,08,13,17.10
2016,08,12,08,14,17.10
2016,08,12,08,15,17.10
2016,08,12,08,16,17.10
2016,08,12,08,17,17.10
2016,08,12,08,18,17.10
2016,08,12,08,19,17.10
2016,08,12,08,20,17.20
2016,08,12,08,21,17.20
2016,08,12,08,22,17.20
2016,08,12,08,23,17.30
2016,08,12,08,24,17.30
2016,08,12,08,25,17.40
2016,08,12,08,26,17.40
2016,08,12,08,27,17.40
2016,08,12,08,28,17.50
2016,08,12,08,29,17.50
2016,08,12,08,30,17.60
2016,08,12,08,31,17.60
2016,08,12,08,32,17.60
2016,08,12,08,33,17.70
2016,08,12,08,34,17.70
2016,08,12,08,35,17.70
2016,08,12,08,36,17.80
2016,08,12,08,37,17.80
2016,08,12,08,38,17.80
2016,08,12,08,39,17.90
2016,08,12,08,40,17.90
2016,08,12,08,41,17.90
2016,08,12,08,42,18.00
2016,08,12,08,43,18.00
2016,08,12,08,44,18.10
2016,08,12,08,45,18.20
2016,08,12,08,46,18.20
2016,08,12,08,47,18.30
2016,08,12,08,48,18.30
2016,08,12,08,49,18.30
2016,08,12,08,50,18.40
2016,08,12,08,51,18.40
2016,08,12,08,52,18.40
2016,08,12,08,53,18.40
2016,08,12,08,54,18.40
2016,08,12,08,55,18.40
2016,08,12,08,56,18.40
2016,08,12,08,57,18.40
2016,08,12,08,58,18.40
2016,08,12,08,59,18.40
2016,08,12,09,00,18.40
2016,08,12,09,01,18.40
2016,08,12,09,02,18.40
2016,08,12,09,03,18.40
2016,08,12,09,04,18.50
2016,08,12,09,05,18.50
2016,08,12,09,06,18.50
2016,08,12,09,07,18.60
2016,08,12,09,08,18.60
2016,08,12,09,09,18.60
2016,08,12,09,10,18.60
2016,08,12,09,11,18.60
2016,08,12,09,12,18.60
2016,08,12,09,13,18.70
2016,08,12,09,14,18.70
2016,08,12,09,15,18.70
2016,08,12,09,16,18.70
2016,08,12,09,17,18.80
2016,08,12,09,18,18.80
2016,08,12,09,19,18.80
2016,08,12,09,20,18.90
2016,08,12,09,21,19.00
2016,08,12,09,22,19.00
2016,08,12,09,23,19.10
2016,08,12,09,24,19.20
2016,08,12,09,25,19.30
2016,08,12,09,26,19.40
2016,08,12,09,27,19.50
2016,08,12,09,28,19.60
2016,08,12,09,29,19.70
2016,08,12,09,30,19.80
2016,08,12,09,31,19.90
2016,08,12,09,32,20.00
2016,08,12,09,33,20.10
2016,08,12,09,34,20.10
2016,08,12,09,35,20.10
2016,08,12,09,36,20.10
2016,08,12,09,37,20.20
2016,08,12,09,38,20.20
2016,08,12,09,39,20.30
2016,08,12,09,40,20.40
2016,08,12,09,41,20.50
2016,08,12,09,42,20.60
2016,08,12,09,43,20.60
2016,08,12,09,44,20.70
2016,08,12,09,45,20.70
2016,08,12,09,46,20.70
2016,08,12,09,47,20.70
2016,08,12,09,48,20.60
2016,08,12,09,49,20.60
2016,08,12,09,50,20.50
2016,08,12,09,51,20.40
2016,08,12,09,52,20.40
2016,08,12,09,53,20.30
2016,08,12,09,54,20.30
2016,08,12,09,55,20.20
2016,08,12,09,56,20.20
2016,08,12,09,57,20.10
2016,08,12,09,58,20.00
2016,08,12,09,59,20.00
2016,08,12,10,00,19.90
2016,08,12,10,01,19.90
2016,08,12,10,02,19.90
2016,08,12,10,03,19.90
2016,08,12,10,04,19.90
2016,08,12,10,05,19.90
2016,08,12,10,06,19.90
2016,08,12,10,07,20.00
2016,08,12,10,08,20.00
2016,08,12,10,09,20.10
2016,08,12,10,10,20.10
2016,08,12,10,11,20.20
2016,08,12,10,12,20.30
2016,08,12,10,13,20.30
2016,08,12,10,14,20.40
2016,08,12,10,15,20.50
2016,08,12,10,16,20.70
2016,08,12,10,17,20.80
2016,08,12,10,18,20.90
2016,08,12,10,19,21.10
2016,08,12,10,20,21.20
2016,08,12,10,21,21.40
2016,08,12,10,22,21.50
2016,08,12,10,23,21.70
2016,08,12,10,24,21.80
2016,08,12,10,25,22.00
2016,08,12,10,26,22.10
2016,08,12,10,27,22.10
2016,08,12,10,28,22.20
2016,08,12,10,29,22.30
2016,08,12,10,30,22.30
2016,08,12,10,31,22.40
2016,08,12,10,32,22.40
2016,08,12,10,33,22.40
2016,08,12,10,34,22.40
2016,08,12,10,35,22.50
2016,08,12,10,36,22.60
2016,08,12,10,37,22.60
2016,08,12,10,38,22.60
2016,08,12,10,39,22.60
2016,08,12,10,40,22.70
2016,08,12,10,41,22.70
2016,08,12,10,42,22.70
2016,08,12,10,43,22.70
2016,08,12,10,44,22.80
2016,08,12,10,45,22.80
2016,08,12,10,46,22.80
2016,08,12,10,47,22.80
2016,08,12,10,48,22.80
2016,08,12,10,49,22.80
2016,08,12,10,50,22.80
2016,08,12,10,51,22.90
2016,08,12,10,52,22.90
2016,08,12,10,53,22.90
2016,08,12,10,54,22.90
2016,08,12,10,55,22.90
2016,08,12,10,56,22.90
2016,08,12,10,57,22.90
2016,08,12,10,58,22.90
2016,08,12,10,59,22.90
2016,08,12,11,00,23.00
2016,08,12,11,01,23.10
2016,08,12,11,02,23.10
2016,08,12,11,03,23.20
2016,08,12,11,04,23.20
2016,08,12,11,05,23.30
2016,08,12,11,06,23.30
2016,08,12,11,07,23.30
2016,08,12,11,08,23.30
2016,08,12,11,09,23.40
2016,08,12,11,10,23.40
2016,08,12,11,11,23.50
2016,08,12,11,12,23.60
2016,08,12,11,13,23.60
2016,08,12,11,14,23.70
2016,08,12,11,15,23.70
2016,08,12,11,16,23.60
2016,08,12,11,17,23.60
2016,08,12,11,18,23.60
2016,08,12,11,19,23.60
2016,08,12,11,20,23.60
2016,08,12,11,21,23.60
2016,08,12,11,22,23.60
2016,08,12,11,23,23.70
2016,08,12,11,24,23.70
2016,08,12,11,25,23.70
2016,08,12,11,26,23.70
2016,08,12,11,27,23.70
2016,08,12,11,28,23.70
2016,08,12,11,29,23.80
2016,08,12,11,30,23.70
2016,08,12,11,31,23.70
2016,08,12,11,32,23.80
2016,08,12,11,33,23.80
2016,08,12,11,34,23.90
2016,08,12,11,35,23.90
2016,08,12,11,36,24.00
2016,08,12,11,37,24.00
2016,08,12,11,38,24.00
2016,08,12,11,39,24.10
2016,08,12,11,40,24.10
2016,08,12,11,41,24.10
2016,08,12,11,42,24.20
2016,08,12,11,43,24.20
2016,08,12,11,44,24.20
2016,08,12,11,45,24.30
2016,08,12,11,46,24.30
2016,08,12,11,47,24.20
2016,08,12,11,48,24.20
2016,08,12,11,49,24.10
2016,08,12,11,50,24.10
2016,08,12,11,51,24.10
2016,08,12,11,52,24.10
2016,08,12,11,53,24.10
2016,08,12,11,54,24.10
2016,08,12,11,55,24.20
2016,08,12,11,56,24.20
2016,08,12,11,57,24.20
2016,08,12,11,58,24.20
2016,08,12,11,59,24.30
2016,08,12,12,00,24.30
2016,08,12,12,01,24.30
2016,08,12,12,02,24.30
2016,08,12,12,03,24.30
2016,08,12,12,04,24.30
2016,08,12,12,05,24.30
2016,08,12,12,06,24.20
2016,08,12,12,07,24.20
2016,08,12,12,08,24.10
2016,08,12,12,09,24.10
2016,08,12,12,10,24.00
2016,08,12,12,11,24.00
2016,08,12,12,12,23.90
2016,08,12,12,13,23.90
2016,08,12,12,14,24.00
2016,08,12,12,15,24.00
2016,08,12,12,16,24.00
2016,08,12,12,17,24.00
2016,08,12,12,18,23.90
2016,08,12,12,19,23.90
2016,08,12,12,20,23.90
2016,08,12,12,21,23.90
2016,08,12,12,22,23.90
2016,08,12,12,23,23.90
2016,08,12,12,24,23.90
2016,08,12,12,25,23.80
2016,08,12,12,26,23.80
2016,08,12,12,27,23.80
2016,08,12,12,28,23.80
2016,08,12,12,29,23.80
2016,08,12,12,30,23.70
2016,08,12,12,31,23.70
2016,08,12,12,32,23.60
2016,08,12,12,33,23.60
2016,08,12,12,34,23.50
2016,08,12,12,35,23.40
2016,08,12,12,36,23.30
2016,08,12,12,37,23.20
2016,08,12,12,38,23.20
2016,08,12,12,39,23.20
2016,08,12,12,40,23.10
2016,08,12,12,41,23.10
2016,08,12,12,42,23.10
2016,08,12,12,43,23.00
2016,08,12,12,44,23.00
2016,08,12,12,45,22.90
2016,08,12,12,46,22.90
2016,08,12,12,47,22.80
2016,08,12,12,48,22.80
2016,08,12,12,49,22.80
2016,08,12,12,50,22.80
2016,08,12,12,51,22.80
2016,08,12,12,52,22.80
2016,08,12,12,53,22.80
2016,08,12,12,54,22.80
2016,08,12,12,55,22.90
2016,08,12,12,56,22.90
2016,08,12,12,57,22.90
2016,08,12,12,58,22.90
2016,08,12,12,59,22.90
2016,08,12,13,00,22.90
2016,08,12,13,01,22.90
2016,08,12,13,02,23.00
2016,08,12,13,03,23.00
2016,08,12,13,04,23.00
2016,08,12,13,05,23.00
2016,08,12,13,06,23.10
2016,08,12,13,07,23.10
2016,08,12,13,08,23.20
2016,08,12,13,09,23.20
2016,08,12,13,10,23.30
2016,08,12,13,11,23.30
2016,08,12,13,12,23.30
2016,08,12,13,13,23.30
2016,08,12,13,14,23.30
2016,08,12,13,15,23.30
2016,08,12,13,16,23.30
2016,08,12,13,17,23.20
2016,08,12,13,18,23.20
2016,08,12,13,19,23.20
2016,08,12,13,20,23.20
2016,08,12,13,21,23.20
2016,08,12,13,22,23.20
2016,08,12,13,23,23.20
2016,08,12,13,24,23.20
2016,08,12,13,25,23.30
2016,08,12,13,26,23.40
2016,08,12,13,27,23.50
2016,08,12,13,28,23.50
2016,08,12,13,29,23.60
2016,08,12,13,30,23.60
2016,08,12,13,31,23.60
2016,08,12,13,32,23.60
2016,08,12,13,33,23.50
2016,08,12,13,34,23.40
2016,08,12,13,35,23.40
2016,08,12,13,36,23.40
2016,08,12,13,37,23.30
2016,08,12,13,38,23.30
2016,08,12,13,39,23.20
2016,08,12,13,40,23.10
2016,08,12,13,41,23.00
2016,08,12,13,42,23.00
2016,08,12,13,43,22.90
2016,08,12,13,44,22.80
2016,08,12,13,45,22.80
2016,08,12,13,46,22.70
2016,08,12,13,47,22.70
2016,08,12,13,48,22.70
2016,08,12,13,49,22.70
2016,08,12,13,50,22.60
2016,08,12,13,51,22.60
2016,08,12,13,52,22.60
2016,08,12,13,53,22.70
2016,08,12,13,54,22.70
2016,08,12,13,55,22.70
2016,08,12,13,56,22.80
2016,08,12,13,57,22.80
2016,08,12,13,58,22.80
2016,08,12,13,59,22.80
2016,08,12,14,00,22.90
2016,08,12,14,01,22.90
2016,08,12,14,02,22.90
2016,08,12,14,03,23.00
2016,08,12,14,04,23.00
2016,08,12,14,05,23.10
2016,08,12,14,06,23.10
2016,08,12,14,07,23.10
2016,08,12,14,08,23.10
2016,08,12,14,09,23.20
2016,08,12,14,10,23.20
2016,08,12,14,11,23.20
2016,08,12,14,12,23.30
2016,08,12,14,13,23.30
2016,08,12,14,14,23.30
2016,08,12,14,15,23.40
2016,08,12,14,16,23.40
2016,08,12,14,17,23.50
2016,08,12,14,18,23.60
2016,08,12,14,19,23.60
2016,08,12,14,20,23.70
2016,08,12,14,21,23.70
2016,08,12,14,22,23.80
2016,08,12,14,23,23.80
2016,08,12,14,24,23.80
2016,08,12,14,25,23.80
2016,08,12,14,26,23.80
2016,08,12,14,27,23.90
2016,08,12,14,28,23.90
2016,08,12,14,29,23.80
2016,08,12,14,30,23.80
2016,08,12,14,31,23.80
2016,08,12,14,32,23.80
2016,08,12,14,33,23.80
2016,08,12,14,34,23.80
2016,08,12,14,35,23.80
2016,08,12,14,36,23.80
2016,08,12,14,37,23.80
2016,08,12,14,38,23.80
2016,08,12,14,39,23.80
2016,08,12,14,40,23.80
2016,08,12,14,41,23.80
2016,08,12,14,42,23.80
2016,08,12,14,43,23.90
2016,08,12,14,44,23.90
2016,08,12,14,45,23.90
2016,08,12,14,46,23.90
2016,08,12,14,47,23.90
2016,08,12,14,48,24.00
2016,08,12,14,49,24.00
2016,08,12,14,50,23.90
2016,08,12,14,51,23.90
2016,08,12,14,52,23.80
2016,08,12,14,53,23.80
2016,08,12,14,54,23.70
2016,08,12,14,55,23.70
2016,08,12,14,56,23.70
2016,08,12,14,57,23.70
2016,08,12,14,58,23.70
2016,08,12,14,59,23.70
2016,08,12,15,00,23.70
2016,08,12,15,01,23.70
2016,08,12,15,02,23.80
2016,08,12,15,03,23.80
2016,08,12,15,04,23.80
2016,08,12,15,05,23.90
2016,08,12,15,06,23.90
2016,08,12,15,07,23.90
2016,08,12,15,08,24.00
2016,08,12,15,09,24.00
2016,08,12,15,10,24.10
2016,08,12,15,11,24.20
2016,08,12,15,12,24.20
2016,08,12,15,13,24.20
2016,08,12,15,14,24.20
2016,08,12,15,15,24.20
2016,08,12,15,16,24.20
2016,08,12,15,17,24.20
2016,08,12,15,18,24.20
2016,08,12,15,19,24.30
2016,08,12,15,20,24.30
2016,08,12,15,21,24.30
2016,08,12,15,22,24.30
2016,08,12,15,23,24.30
2016,08,12,15,24,24.20
2016,08,12,15,25,24.20
2016,08,12,15,26,24.20
2016,08,12,15,27,24.20
2016,08,12,15,28,24.20
2016,08,12,15,29,24.20
2016,08,12,15,30,24.30
2016,08,12,15,31,24.30
2016,08,12,15,32,24.30
2016,08,12,15,33,24.30
2016,08,12,15,34,24.30
2016,08,12,15,35,24.40
2016,08,12,15,36,24.40
2016,08,12,15,37,24.40
2016,08,12,15,38,24.50
2016,08,12,15,39,24.50
2016,08,12,15,40,24.60
2016,08,12,15,41,24.60
2016,08,12,15,42,24.60
2016,08,12,15,43,24.70
2016,08,12,15,44,24.70
2016,08,12,15,45,24.70
2016,08,12,15,46,24.70
2016,08,12,15,47,24.80
2016,08,12,15,48,24.80
2016,08,12,15,49,24.80
2016,08,12,15,50,24.80
2016,08,12,15,51,24.90
2016,08,12,15,52,24.90
2016,08,12,15,53,25.00
2016,08,12,15,54,25.00
2016,08,12,15,55,25.00
2016,08,12,15,56,25.00
2016,08,12,15,57,25.00
2016,08,12,15,58,25.10
2016,08,12,15,59,25.10
2016,08,12,16,00,25.10
2016,08,12,16,01,25.10
2016,08,12,16,02,25.10
2016,08,12,16,03,25.20
2016,08,12,16,04,25.20
2016,08,12,16,05,25.20
2016,08,12,16,06,25.20
2016,08,12,16,07,25.20
2016,08,12,16,08,25.30
2016,08,12,16,09,25.30
2016,08,12,16,10,25.40
2016,08,12,16,11,25.40
2016,08,12,16,12,25.40
2016,08,12,16,13,25.40
2016,08,12,16,14,25.40
2016,08,12,16,15,25.50
2016,08,12,16,16,25.50
2016,08,12,16,17,25.50
2016,08,12,16,18,25.60
2016,08,12,16,19,25.60
2016,08,12,16,20,25.60
2016,08,12,16,21,25.60
2016,08,12,16,22,25.70
2016,08,12,16,23,25.70
2016,08,12,16,24,25.70
2016,08,12,16,25,25.70
2016,08,12,16,26,25.70
2016,08,12,16,27,25.70
2016,08,12,16,28,25.70
2016,08,12,16,29,25.70
2016,08,12,16,30,25.80
2016,08,12,16,31,25.80
2016,08,12,16,32,25.80
2016,08,12,16,33,25.80
2016,08,12,16,34,25.80
2016,08,12,16,35,25.80
2016,08,12,16,36,25.90
2016,08,12,16,37,25.90
2016,08,12,16,38,26.00
2016,08,12,16,39,26.00
2016,08,12,16,40,26.10
2016,08,12,16,41,26.00
2016,08,12,16,42,26.00
2016,08,12,16,43,26.00
2016,08,12,16,44,25.90
2016,08,12,16,45,25.90
2016,08,12,16,46,25.90
2016,08,12,16,47,25.90
2016,08,12,16,48,25.80
2016,08,12,16,49,25.80
2016,08,12,16,50,25.70
2016,08,12,16,51,25.70
2016,08,12,16,52,25.60
2016,08,12,16,53,25.50
2016,08,12,16,54,25.50
2016,08,12,16,55,25.40
2016,08,12,16,56,25.40
2016,08,12,16,57,25.40
2016,08,12,16,58,25.40
2016,08,12,16,59,25.40
2016,08,12,17,00,25.40
2016,08,12,17,01,25.40
2016,08,12,17,02,25.40
2016,08,12,17,03,25.40
2016,08,12,17,04,25.30
2016,08,12,17,05,25.30
2016,08,12,17,06,25.30
2016,08,12,17,07,25.40
2016,08,12,17,08,25.40
2016,08,12,17,09,25.50
2016,08,12,17,10,25.50
2016,08,12,17,11,25.60
2016,08,12,17,12,25.60
2016,08,12,17,13,25.70
2016,08,12,17,14,25.70
2016,08,12,17,15,25.80
2016,08,12,17,16,25.80
2016,08,12,17,17,25.90
2016,08,12,17,18,26.00
2016,08,12,17,19,26.00